CES5341 ZSSS-ZGSZ

Flight info

Callsign CES5341
Flight time 2h 2m
Altitude 40100
Route NXD71D NXD W131 AKDIM A470 DUBGO W134 ELNEX A599 SHR V171 PLT W19 ATKAV W20 SALIV R473 NOLON W90 POU W7 SAREX SAREX3
Aircraft A359/H-SDE2E3GHIJ3J4J5LM1ORWXY/LB1D1

Departure

Time 2026-04-23 06:06
Airport Shanghai Hongqiao International Airport (ZSSS)

Arrival

Time 2026-04-23 08:09
Airport Shenzhen Bao'an International Airport (ZGSZ)
Time Latitude Longitude Altitude Speed Heading
2026-04-23 06:03 31.20283 121.33032 29 ft 16 kts 174°
2026-04-23 06:03 31.20153 121.33034 29 ft 21 kts 176°
2026-04-23 06:03 31.19989 121.33046 29 ft 27 kts 178°
2026-04-23 06:03 31.19780 121.33056 27 ft 33 kts 178°
2026-04-23 06:04 31.19538 121.33069 27 ft 37 kts 177°
2026-04-23 06:04 31.19266 121.33085 27 ft 41 kts 177°
2026-04-23 06:04 31.19013 121.33099 28 ft 34 kts 177°
2026-04-23 06:04 31.18793 121.33110 29 ft 31 kts 177°
2026-04-23 06:05 31.18579 121.33122 29 ft 32 kts 177°
2026-04-23 06:05 31.18407 121.33131 28 ft 25 kts 177°
2026-04-23 06:05 31.18344 121.33195 29 ft 14 kts 93°
2026-04-23 06:05 31.18379 121.33312 27 ft 17 kts 30°
2026-04-23 06:06 31.18506 121.33316 27 ft 23 kts 356°
2026-04-23 06:06 31.18917 121.33295 27 ft 97 kts 357°
2026-04-23 06:06 31.19820 121.33246 43 ft 159 kts 357°
2026-04-23 06:06 31.20996 121.33182 637 ft 174 kts 357°
2026-04-23 06:07 31.22201 121.33073 1657 ft 168 kts 353°
2026-04-23 06:07 31.23218 121.32523 2696 ft 162 kts 322°
2026-04-23 06:07 31.23884 121.31493 3278 ft 175 kts 306°
2026-04-23 06:07 31.24526 121.30134 3605 ft 204 kts 302°
2026-04-23 06:08 31.25222 121.28577 4071 ft 224 kts 300°
2026-04-23 06:08 31.25964 121.26929 4672 ft 233 kts 300°
2026-04-23 06:08 31.26727 121.25256 4907 ft 233 kts 300°
2026-04-23 06:08 31.27406 121.23536 4950 ft 235 kts 288°
2026-04-23 06:09 31.27457 121.21635 4945 ft 239 kts 256°
2026-04-23 06:09 31.26686 121.19890 5170 ft 250 kts 237°
2026-04-23 06:09 31.25621 121.18177 5671 ft 267 kts 235°
2026-04-23 06:09 31.24501 121.16436 6566 ft 271 kts 235°
2026-04-23 06:10 31.23364 121.14657 7562 ft 273 kts 235°
2026-04-23 06:10 31.22066 121.13027 8575 ft 277 kts 220°
2026-04-23 06:10 31.20337 121.12007 9598 ft 284 kts 197°
2026-04-23 06:10 31.18356 121.11808 10483 ft 293 kts 182°
2026-04-23 06:11 31.16234 121.11914 10940 ft 316 kts 179°
2026-04-23 06:11 31.13966 121.12079 11353 ft 338 kts 179°
2026-04-23 06:11 31.11555 121.12250 11842 ft 354 kts 179°
2026-04-23 06:11 31.09076 121.12513 12553 ft 362 kts 178°
2026-04-23 06:12 31.06568 121.12321 13306 ft 362 kts 195°
2026-04-23 06:12 31.04238 121.11266 14071 ft 359 kts 213°
2026-04-23 06:12 31.01173 121.06907 15558 ft 355 kts 249°
2026-04-23 06:13 31.00437 121.04161 16331 ft 356 kts 256°
2026-04-23 06:13 30.99910 121.01332 17098 ft 358 kts 259°
2026-04-23 06:13 30.99474 120.98464 17858 ft 361 kts 260°
2026-04-23 06:13 30.99058 120.95567 18573 ft 363 kts 259°
2026-04-23 06:14 30.98621 120.92660 19230 ft 366 kts 259°
2026-04-23 06:14 30.98307 120.90689 19697 ft 367 kts 258°
2026-04-23 06:14 30.97658 120.86844 20632 ft 368 kts 258°
2026-04-23 06:14 30.97137 120.83901 21348 ft 370 kts 257°
2026-04-23 06:15 30.96786 120.81951 21809 ft 371 kts 257°
2026-04-23 06:15 30.96250 120.79006 22502 ft 374 kts 257°
2026-04-23 06:15 30.95705 120.76020 23216 ft 376 kts 257°
2026-04-23 06:15 30.95158 120.73031 23863 ft 379 kts 257°
2026-04-23 06:16 30.94428 120.69030 24658 ft 381 kts 257°
2026-04-23 06:16 30.93876 120.66000 25274 ft 383 kts 257°
2026-04-23 06:16 30.93509 120.63984 25675 ft 384 kts 257°
2026-04-23 06:16 30.92952 120.60931 26289 ft 386 kts 257°
2026-04-23 06:17 30.92385 120.57825 26901 ft 388 kts 257°
2026-04-23 06:17 30.91820 120.54737 27492 ft 391 kts 258°
2026-04-23 06:17 30.91253 120.51680 28065 ft 393 kts 257°
2026-04-23 06:17 30.90488 120.48626 28641 ft 395 kts 251°
2026-04-23 06:18 30.89392 120.45667 29198 ft 399 kts 245°
2026-04-23 06:18 30.87935 120.42894 29761 ft 404 kts 238°
2026-04-23 06:18 30.86111 120.40376 30258 ft 412 kts 231°
2026-04-23 06:18 30.83984 120.38116 30691 ft 418 kts 225°
2026-04-23 06:19 30.81668 120.36044 31122 ft 423 kts 222°
2026-04-23 06:19 30.79236 120.34066 31550 ft 426 kts 221°
2026-04-23 06:19 30.76773 120.32139 31972 ft 428 kts 220°
2026-04-23 06:19 30.74292 120.30203 32374 ft 430 kts 221°
2026-04-23 06:20 30.71829 120.28257 32755 ft 431 kts 221°
2026-04-23 06:20 30.69346 120.26265 33126 ft 432 kts 222°
2026-04-23 06:20 30.66884 120.24269 33655 ft 430 kts 222°
2026-04-23 06:20 30.64445 120.22279 34222 ft 426 kts 223°
2026-04-23 06:21 30.62036 120.20309 34739 ft 422 kts 223°
2026-04-23 06:21 30.59654 120.18358 35290 ft 417 kts 223°
2026-04-23 06:21 30.57294 120.16426 35850 ft 412 kts 224°
2026-04-23 06:21 30.54961 120.14517 36325 ft 409 kts 224°
2026-04-23 06:22 30.52643 120.12620 36804 ft 406 kts 224°
2026-04-23 06:22 30.50345 120.10740 37267 ft 403 kts 224°
2026-04-23 06:22 30.48061 120.08874 37725 ft 400 kts 224°
2026-04-23 06:22 30.45800 120.07028 38171 ft 397 kts 225°
2026-04-23 06:23 30.43505 120.05239 38592 ft 398 kts 222°
2026-04-23 06:23 30.41143 120.03580 38925 ft 397 kts 221°
2026-04-23 06:23 30.38752 120.01953 39145 ft 399 kts 221°
2026-04-23 06:23 30.36344 120.00341 39324 ft 400 kts 220°
2026-04-23 06:24 30.33925 119.98736 39517 ft 401 kts 220°
2026-04-23 06:24 30.31500 119.97130 39725 ft 402 kts 220°
2026-04-23 06:24 30.29072 119.95523 39925 ft 402 kts 220°
2026-04-23 06:24 30.26644 119.93913 40051 ft 403 kts 220°
2026-04-23 06:25 30.21775 119.90683 40080 ft 402 kts 220°
2026-04-23 06:25 30.16919 119.87460 40076 ft 403 kts 220°
2026-04-23 06:26 30.12062 119.84237 40072 ft 403 kts 220°
2026-04-23 06:26 30.07202 119.81019 40069 ft 403 kts 220°
2026-04-23 06:27 30.02352 119.77789 40071 ft 402 kts 221°
2026-04-23 06:27 29.97520 119.74540 40070 ft 402 kts 221°
2026-04-23 06:28 29.92689 119.71287 40064 ft 402 kts 221°
2026-04-23 06:28 29.87849 119.68035 40064 ft 403 kts 221°
2026-04-23 06:29 29.83114 119.64707 40065 ft 399 kts 223°
2026-04-23 06:29 29.78517 119.61143 40068 ft 397 kts 224°
2026-04-23 06:30 29.73960 119.57534 40049 ft 397 kts 224°
2026-04-23 06:30 29.69397 119.53919 40056 ft 398 kts 224°
2026-04-23 06:31 29.64849 119.50299 40058 ft 395 kts 226°
2026-04-23 06:31 29.60855 119.46098 40055 ft 386 kts 234°
2026-04-23 06:32 29.57230 119.41565 40054 ft 385 kts 236°
2026-04-23 06:32 29.53690 119.37002 40059 ft 385 kts 236°
2026-04-23 06:33 29.50128 119.32413 40055 ft 385 kts 236°
2026-04-23 06:33 29.46550 119.27843 40052 ft 385 kts 235°
2026-04-23 06:34 29.42960 119.23278 40052 ft 385 kts 235°
2026-04-23 06:34 29.39361 119.18713 40053 ft 386 kts 235°
2026-04-23 06:35 29.35764 119.14152 40054 ft 385 kts 235°
2026-04-23 06:35 29.32156 119.09597 40034 ft 386 kts 235°
2026-04-23 06:36 29.28548 119.05046 40052 ft 386 kts 235°
2026-04-23 06:36 29.24942 119.00499 40049 ft 386 kts 235°
2026-04-23 06:37 29.21333 118.95952 40052 ft 386 kts 235°
2026-04-23 06:37 29.17719 118.91409 40053 ft 386 kts 235°
2026-04-23 06:38 29.14103 118.86871 40047 ft 386 kts 235°
2026-04-23 06:38 29.10486 118.82339 40047 ft 385 kts 235°
2026-04-23 06:39 29.06867 118.77811 40048 ft 386 kts 235°
2026-04-23 06:39 29.03250 118.73285 40044 ft 386 kts 235°
2026-04-23 06:40 28.99629 118.68756 40041 ft 386 kts 235°
2026-04-23 06:40 28.96023 118.64253 40046 ft 386 kts 235°
2026-04-23 06:41 28.92394 118.59728 40046 ft 386 kts 235°
2026-04-23 06:41 28.88759 118.55201 40044 ft 386 kts 235°
2026-04-23 06:42 28.85126 118.50682 40040 ft 386 kts 235°
2026-04-23 06:42 28.81478 118.46165 40049 ft 387 kts 234°
2026-04-23 06:43 28.77817 118.41674 40046 ft 386 kts 234°
2026-04-23 06:43 28.74165 118.37172 40044 ft 387 kts 234°
2026-04-23 06:44 28.70520 118.32661 40050 ft 387 kts 235°
2026-04-23 06:44 28.66875 118.28145 40045 ft 387 kts 234°
2026-04-23 06:45 28.63220 118.23628 40051 ft 388 kts 234°
2026-04-23 06:45 28.59564 118.19117 40047 ft 388 kts 234°
2026-04-23 06:46 28.55906 118.14607 40061 ft 388 kts 234°
2026-04-23 06:46 28.52248 118.10101 40040 ft 388 kts 234°
2026-04-23 06:47 28.48580 118.05588 40061 ft 388 kts 234°
2026-04-23 06:47 28.45187 118.00926 40059 ft 381 kts 242°
2026-04-23 06:48 28.42816 117.95632 40061 ft 374 kts 253°
2026-04-23 06:48 28.41710 117.89881 40065 ft 373 kts 264°
2026-04-23 06:49 28.41604 117.83981 40072 ft 374 kts 268°
2026-04-23 06:49 28.41684 117.78079 40069 ft 374 kts 269°
2026-04-23 06:50 28.41748 117.72176 40063 ft 374 kts 268°
2026-04-23 06:50 28.41776 117.66267 40067 ft 373 kts 268°
2026-04-23 06:51 28.41769 117.60386 40077 ft 374 kts 268°
2026-04-23 06:51 28.41767 117.54481 40076 ft 374 kts 268°
2026-04-23 06:52 28.41773 117.48584 40068 ft 374 kts 268°
2026-04-23 06:52 28.41776 117.42721 40071 ft 374 kts 267°
2026-04-23 06:53 28.41773 117.36818 40073 ft 374 kts 267°
2026-04-23 06:53 28.41771 117.30907 40083 ft 374 kts 267°
2026-04-23 06:54 28.41761 117.25003 40077 ft 374 kts 267°
2026-04-23 06:54 28.41744 117.19087 40069 ft 374 kts 267°
2026-04-23 06:55 28.41731 117.13190 40074 ft 374 kts 267°
2026-04-23 06:55 28.41720 117.07277 40074 ft 374 kts 267°
2026-04-23 06:56 28.41707 117.01366 40072 ft 374 kts 267°
2026-04-23 06:56 28.41691 116.95464 40074 ft 374 kts 267°
2026-04-23 06:57 28.41672 116.89601 40078 ft 374 kts 267°
2026-04-23 06:57 28.41610 116.83704 40081 ft 373 kts 265°
2026-04-23 06:58 28.40793 116.77908 40078 ft 372 kts 255°
2026-04-23 06:58 28.38734 116.72493 40073 ft 378 kts 244°
2026-04-23 06:59 28.35433 116.67752 40087 ft 387 kts 233°
2026-04-23 06:59 28.31603 116.63421 40079 ft 389 kts 232°
2026-04-23 07:00 28.27714 116.59137 40071 ft 390 kts 232°
2026-04-23 07:00 28.24504 116.55558 40079 ft 390 kts 232°
2026-04-23 07:01 28.20654 116.51225 40075 ft 389 kts 232°
2026-04-23 07:01 28.16816 116.46892 40069 ft 390 kts 232°
2026-04-23 07:02 28.12969 116.42553 40077 ft 390 kts 232°
2026-04-23 07:02 28.09121 116.38218 40085 ft 390 kts 232°
2026-04-23 07:03 28.05266 116.33883 40077 ft 391 kts 232°
2026-04-23 07:03 28.01406 116.29546 40077 ft 391 kts 232°
2026-04-23 07:04 27.97538 116.25207 40081 ft 391 kts 232°
2026-04-23 07:04 27.93670 116.20871 40085 ft 392 kts 232°
2026-04-23 07:05 27.89822 116.16562 40087 ft 392 kts 232°
2026-04-23 07:05 27.85942 116.12222 40085 ft 392 kts 232°
2026-04-23 07:06 27.82060 116.07885 40083 ft 392 kts 232°
2026-04-23 07:06 27.78173 116.03555 40082 ft 394 kts 232°
2026-04-23 07:07 27.73767 115.99722 40080 ft 409 kts 221°
2026-04-23 07:07 27.68531 115.96941 40084 ft 420 kts 213°
2026-04-23 07:08 27.63065 115.94518 40083 ft 423 kts 212°
2026-04-23 07:08 27.57574 115.92128 40079 ft 423 kts 212°
2026-04-23 07:09 27.52140 115.89720 40072 ft 423 kts 213°
2026-04-23 07:09 27.46672 115.87271 40074 ft 423 kts 213°
2026-04-23 07:10 27.41204 115.84818 40071 ft 423 kts 213°
2026-04-23 07:10 27.35730 115.82364 40071 ft 424 kts 213°
2026-04-23 07:11 27.30251 115.79912 40068 ft 424 kts 212°
2026-04-23 07:12 27.22023 115.76237 40067 ft 425 kts 212°
2026-04-23 07:12 27.16532 115.73789 40062 ft 425 kts 212°
2026-04-23 07:13 27.11026 115.71335 40061 ft 425 kts 212°
2026-04-23 07:13 27.05517 115.68883 40059 ft 426 kts 212°
2026-04-23 07:14 27.00009 115.66433 40060 ft 427 kts 212°
2026-04-23 07:14 26.94483 115.63980 40059 ft 427 kts 212°
2026-04-23 07:15 26.88996 115.61544 40063 ft 427 kts 212°
2026-04-23 07:15 26.83468 115.59094 40057 ft 428 kts 212°
2026-04-23 07:16 26.77925 115.56640 40054 ft 429 kts 212°
2026-04-23 07:16 26.72368 115.54182 40053 ft 429 kts 212°
2026-04-23 07:17 26.66813 115.51727 40058 ft 430 kts 211°
2026-04-23 07:17 26.61250 115.49272 40054 ft 430 kts 211°
2026-04-23 07:18 26.55681 115.46818 40064 ft 430 kts 211°
2026-04-23 07:18 26.50106 115.44363 40038 ft 431 kts 211°
2026-04-23 07:19 26.44523 115.41907 40050 ft 431 kts 211°
2026-04-23 07:19 26.38933 115.39448 40049 ft 432 kts 211°
2026-04-23 07:20 26.33339 115.36992 40048 ft 432 kts 211°
2026-04-23 07:20 26.27772 115.34478 40045 ft 428 kts 214°
2026-04-23 07:21 26.22824 115.31022 40045 ft 413 kts 227°
2026-04-23 07:21 26.18545 115.26793 40043 ft 410 kts 229°
2026-04-23 07:22 26.14416 115.22466 40043 ft 410 kts 230°
2026-04-23 07:22 26.10268 115.18103 40047 ft 410 kts 229°
2026-04-23 07:23 26.06107 115.13757 40045 ft 411 kts 229°
2026-04-23 07:23 26.01928 115.09416 40044 ft 411 kts 229°
2026-04-23 07:24 25.97752 115.05088 40046 ft 411 kts 229°
2026-04-23 07:24 25.93578 115.00763 40043 ft 411 kts 229°
2026-04-23 07:25 25.89385 114.96426 40046 ft 411 kts 229°
2026-04-23 07:25 25.85187 114.92094 40042 ft 412 kts 229°
2026-04-23 07:26 25.80499 114.88293 40039 ft 425 kts 217°
2026-04-23 07:26 25.74868 114.85903 40045 ft 442 kts 204°
2026-04-23 07:27 25.68855 114.84336 40044 ft 446 kts 202°
2026-04-23 07:27 25.62782 114.82899 40041 ft 446 kts 202°
2026-04-23 07:28 25.56713 114.81441 40046 ft 446 kts 202°
2026-04-23 07:28 25.50659 114.79953 40044 ft 446 kts 202°
2026-04-23 07:29 25.44606 114.78452 40046 ft 446 kts 202°
2026-04-23 07:29 25.38551 114.76952 40044 ft 446 kts 202°
2026-04-23 07:30 25.32501 114.75457 40044 ft 446 kts 202°
2026-04-23 07:30 25.26445 114.73963 40045 ft 446 kts 202°
2026-04-23 07:31 25.20696 114.72545 40044 ft 445 kts 202°
2026-04-23 07:31 25.14918 114.71122 40046 ft 445 kts 202°
2026-04-23 07:32 25.08874 114.69633 40048 ft 445 kts 202°
2026-04-23 07:32 25.02857 114.68155 40041 ft 446 kts 201°
2026-04-23 07:33 24.96802 114.66669 40043 ft 446 kts 201°
2026-04-23 07:33 24.90740 114.65184 40037 ft 446 kts 201°
2026-04-23 07:34 24.84678 114.63698 40048 ft 446 kts 201°
2026-04-23 07:34 24.78613 114.62207 40033 ft 446 kts 201°
2026-04-23 07:35 24.72564 114.60676 40037 ft 444 kts 204°
2026-04-23 07:35 24.66939 114.58180 40042 ft 432 kts 214°
2026-04-23 07:36 24.61689 114.55015 40035 ft 430 kts 216°
2026-04-23 07:36 24.56512 114.51728 40032 ft 430 kts 217°
2026-04-23 07:37 24.51325 114.48423 40030 ft 431 kts 216°
2026-04-23 07:37 24.46202 114.45091 40032 ft 428 kts 220°
2026-04-23 07:38 24.41769 114.40819 40020 ft 420 kts 233°
2026-04-23 07:38 24.38646 114.35517 40005 ft 412 kts 247°
2026-04-23 07:39 24.36422 114.29712 40013 ft 413 kts 249°
2026-04-23 07:39 24.34312 114.23840 40018 ft 413 kts 249°
2026-04-23 07:40 24.32211 114.18021 40012 ft 413 kts 249°
2026-04-23 07:40 24.30009 114.12203 40007 ft 414 kts 246°
2026-04-23 07:41 24.26893 114.06874 40008 ft 420 kts 233°
2026-04-23 07:41 24.22471 114.02604 40008 ft 430 kts 220°
2026-04-23 07:42 24.17431 113.99018 40004 ft 433 kts 218°
2026-04-23 07:42 24.12320 113.95524 39995 ft 432 kts 219°
2026-04-23 07:43 24.07628 113.91480 39998 ft 428 kts 226°
2026-04-23 07:43 24.03171 113.87168 39992 ft 428 kts 227°
2026-04-23 07:44 23.98755 113.82791 39996 ft 428 kts 227°
2026-04-23 07:44 23.94329 113.78416 39988 ft 429 kts 227°
2026-04-23 07:45 23.89885 113.74045 39989 ft 430 kts 226°
2026-04-23 07:45 23.85445 113.69689 39985 ft 431 kts 227°
2026-04-23 07:46 23.80986 113.65280 39981 ft 432 kts 227°
2026-04-23 07:46 23.77276 113.61624 39998 ft 433 kts 225°
2026-04-23 07:47 23.72794 113.57298 39971 ft 434 kts 225°
2026-04-23 07:47 23.67525 113.52239 39969 ft 433 kts 226°
2026-04-23 07:48 23.63748 113.48564 39939 ft 434 kts 227°
2026-04-23 07:48 23.59275 113.44117 39969 ft 436 kts 227°
2026-04-23 07:49 23.54695 113.39749 39964 ft 441 kts 220°
2026-04-23 07:49 23.49167 113.36747 39960 ft 453 kts 207°
2026-04-23 07:50 23.43220 113.34417 39955 ft 455 kts 205°
2026-04-23 07:50 23.37222 113.32192 39956 ft 456 kts 205°
2026-04-23 07:51 23.31220 113.29947 39955 ft 456 kts 205°
2026-04-23 07:51 23.25262 113.27695 39361 ft 452 kts 205°
2026-04-23 07:51 23.22311 113.26577 38200 ft 446 kts 205°
2026-04-23 07:52 23.19368 113.25459 36559 ft 450 kts 205°
2026-04-23 07:52 23.16400 113.24332 34915 ft 455 kts 205°
2026-04-23 07:52 23.13392 113.23192 33183 ft 460 kts 205°
2026-04-23 07:52 23.10341 113.22098 31359 ft 467 kts 201°
2026-04-23 07:53 23.07284 113.21559 29641 ft 480 kts 188°
2026-04-23 07:53 23.03915 113.21857 27559 ft 494 kts 173°
2026-04-23 07:53 23.00646 113.23090 25645 ft 503 kts 158°
2026-04-23 07:53 22.97735 113.25199 24016 ft 504 kts 142°
2026-04-23 07:54 22.95412 113.28012 22354 ft 500 kts 127°
2026-04-23 07:54 22.93820 113.31325 20654 ft 492 kts 112°
2026-04-23 07:54 22.92899 113.34810 19084 ft 481 kts 106°
2026-04-23 07:54 22.91982 113.38220 17460 ft 469 kts 110°
2026-04-23 07:55 22.90862 113.41526 15777 ft 455 kts 114°
2026-04-23 07:55 22.89550 113.44540 14198 ft 439 kts 125°
2026-04-23 07:55 22.87617 113.46967 12826 ft 415 kts 145°
2026-04-23 07:55 22.85237 113.48432 12078 ft 374 kts 165°
2026-04-23 07:56 22.82813 113.48834 11458 ft 336 kts 187°
2026-04-23 07:56 22.80599 113.48472 10916 ft 309 kts 195°
2026-04-23 07:56 22.78565 113.48067 10628 ft 284 kts 195°
2026-04-23 07:56 22.76686 113.47747 10475 ft 266 kts 194°
2026-04-23 07:57 22.75029 113.47509 10368 ft 265 kts 193°
2026-04-23 07:57 22.73222 113.47293 10183 ft 266 kts 191°
2026-04-23 07:57 22.71375 113.47109 9847 ft 267 kts 191°
2026-04-23 07:57 22.69459 113.46936 9689 ft 283 kts 190°
2026-04-23 07:58 22.67500 113.46775 9459 ft 281 kts 189°
2026-04-23 07:58 22.65544 113.46623 8936 ft 283 kts 189°
2026-04-23 07:58 22.63605 113.46476 8502 ft 282 kts 189°
2026-04-23 07:58 22.61688 113.46335 8150 ft 278 kts 188°
2026-04-23 07:59 22.59774 113.46330 7810 ft 280 kts 177°
2026-04-23 07:59 22.57990 113.47081 7491 ft 289 kts 148°
2026-04-23 07:59 22.56716 113.48669 7239 ft 293 kts 124°
2026-04-23 07:59 22.55845 113.50520 7141 ft 282 kts 120°
2026-04-23 08:00 22.54954 113.52430 6992 ft 272 kts 121°
2026-04-23 08:00 22.54096 113.54221 6867 ft 261 kts 122°
2026-04-23 08:00 22.53260 113.55928 6721 ft 254 kts 122°
2026-04-23 08:00 22.52432 113.57604 6493 ft 251 kts 122°
2026-04-23 08:01 22.51610 113.59257 6259 ft 247 kts 122°
2026-04-23 08:01 22.50799 113.60882 6037 ft 243 kts 122°
2026-04-23 08:01 22.50004 113.62473 5817 ft 239 kts 122°
2026-04-23 08:01 22.49211 113.64058 5592 ft 238 kts 122°
2026-04-23 08:02 22.48500 113.65652 5377 ft 240 kts 117°
2026-04-23 08:02 22.47899 113.67363 5177 ft 240 kts 114°
2026-04-23 08:02 22.47349 113.69040 4966 ft 239 kts 113°
2026-04-23 08:02 22.46802 113.70733 4762 ft 239 kts 113°
2026-04-23 08:03 22.46260 113.72427 4536 ft 237 kts 113°
2026-04-23 08:03 22.45719 113.74106 4320 ft 235 kts 113°
2026-04-23 08:03 22.45182 113.75771 4113 ft 234 kts 113°
2026-04-23 08:03 22.44658 113.77431 3893 ft 233 kts 110°
2026-04-23 08:04 22.44503 113.79177 3693 ft 238 kts 82°
2026-04-23 08:04 22.45068 113.80852 3488 ft 237 kts 65°
2026-04-23 08:04 22.45825 113.82430 3273 ft 237 kts 62°
2026-04-23 08:04 22.46615 113.84001 3067 ft 237 kts 61°
2026-04-23 08:05 22.47492 113.85497 2825 ft 235 kts 47°
2026-04-23 08:05 22.48822 113.86375 2705 ft 219 kts
2026-04-23 08:05 22.50268 113.86272 2589 ft 203 kts 339°
2026-04-23 08:05 22.51489 113.85603 2468 ft 193 kts 324°
2026-04-23 08:06 22.52626 113.84886 2349 ft 185 kts 328°
2026-04-23 08:06 22.53724 113.84315 2312 ft 164 kts 331°
2026-04-23 08:06 22.54714 113.83787 2078 ft 157 kts 329°
2026-04-23 08:06 22.55677 113.83251 1738 ft 155 kts 328°
2026-04-23 08:07 22.56618 113.82726 1457 ft 149 kts 331°
2026-04-23 08:07 22.57513 113.82239 1272 ft 139 kts 332°
2026-04-23 08:07 22.58355 113.81778 1085 ft 134 kts 330°
2026-04-23 08:07 22.59171 113.81327 906 ft 134 kts 330°
2026-04-23 08:08 22.60011 113.80864 726 ft 134 kts 330°
2026-04-23 08:08 22.60833 113.80413 541 ft 134 kts 330°
2026-04-23 08:08 22.61653 113.79961 366 ft 131 kts 329°
2026-04-23 08:08 22.62453 113.79515 176 ft 127 kts 330°
2026-04-23 08:09 22.63246 113.79088 37 ft 128 kts 332°
2026-04-23 08:09 22.63993 113.78679 26 ft 109 kts 332°
2026-04-23 08:09 22.64475 113.78412 22 ft 37 kts 334°
2026-04-23 08:09 22.64667 113.78310 22 ft 29 kts 334°
2026-04-23 08:10 22.64837 113.78220 22 ft 27 kts 334°
2026-04-23 08:10 22.65009 113.78138 22 ft 26 kts 346°
2026-04-23 08:10 22.65389 113.78126 22 ft 29 kts 346°
2026-04-23 08:11 22.65576 113.78030 22 ft 31 kts 332°
2026-04-23 08:11 22.65778 113.77916 24 ft 34 kts 333°
2026-04-23 08:11 22.65955 113.77817 22 ft 10 kts 333°
2026-04-23 08:11 22.66001 113.77804 22 ft 12 kts
2026-04-23 08:12 22.66095 113.77824 22 ft 17 kts 13°
2026-04-23 08:12 22.66190 113.77899 22 ft 18 kts 61°
2026-04-23 08:12 22.66255 113.78037 22 ft 23 kts 63°
2026-04-23 08:12 22.66333 113.78204 22 ft 27 kts 64°
2026-04-23 08:13 22.66315 113.78338 22 ft 14 kts 157°
2026-04-23 08:13 22.66214 113.78391 22 ft 19 kts 153°
2026-04-23 08:13 22.66083 113.78464 22 ft 24 kts 153°
2026-04-23 08:13 22.65922 113.78551 22 ft 28 kts 153°
2026-04-23 08:14 22.65738 113.78651 22 ft 31 kts 153°
2026-04-23 08:14 22.65534 113.78762 22 ft 34 kts 153°
2026-04-23 08:14 22.65314 113.78883 22 ft 37 kts 153°
2026-04-23 08:14 22.65079 113.79012 22 ft 39 kts 153°
2026-04-23 08:15 22.64833 113.79147 23 ft 41 kts 153°
2026-04-23 08:15 22.64576 113.79289 23 ft 42 kts 153°
2026-04-23 08:15 22.64311 113.79436 22 ft 43 kts 153°
2026-04-23 08:15 22.64038 113.79584 22 ft 44 kts 153°
2026-04-23 08:16 22.63761 113.79736 22 ft 41 kts 153°
2026-04-23 08:16 22.63627 113.79857 22 ft 16 kts 87°
2026-04-23 08:16 22.63670 113.79950 22 ft 17 kts 62°
2026-04-23 08:16 22.63729 113.80077 22 ft 21 kts 64°
2026-04-23 08:17 22.63801 113.80234 22 ft 25 kts 62°
2026-04-23 08:17 22.63882 113.80407 22 ft 28 kts 63°
2026-04-23 08:17 22.63977 113.80608 22 ft 31 kts 63°
2026-04-23 08:17 22.63962 113.80719 22 ft 14 kts 148°
2026-04-23 08:18 22.63862 113.80777 22 ft 19 kts 152°
2026-04-23 08:18 22.63730 113.80848 22 ft 24 kts 153°
2026-04-23 08:18 22.63570 113.80935 22 ft 28 kts 153°
2026-04-23 08:18 22.63386 113.81036 22 ft 31 kts 153°
2026-04-23 08:19 22.63271 113.81026 22 ft 18 kts 237°
2026-04-23 08:19 22.63206 113.80889 22 ft 23 kts 243°
2026-04-23 08:19 22.63166 113.80743 23 ft 6 kts 244°
2026-04-23 08:19 22.63162 113.80733 22 ft 4 kts 244°
2026-04-23 08:20 22.63155 113.80718 22 ft 0 kts 243°